Simultaneous Nadir Overpasses (SNOs) Predictions

Prediction of SNOs between NOAA-20 and AQUA Satellite Orbit:

Table of predicted SNOs for the next 14.0 days since TLE Epoch: 10/26/2019
Index Date (NOAA-20) Time (NOAA-20) Lat,Lon (NOAA-20) SZA (NOAA-20 ) Date (AQUA) Time (AQUA) Lat,Lon (AQUA) SZA (AQUA ) Distance(km) Time Diff (sec)
1 10/28/2019 05:56:03 -75.32, 147.81 70.19 10/28/2019 05:57:04 -75.31, 147.76 70.24 1.43 61
2 10/28/2019 06:46:26 76.29, -41.69 108.73 10/28/2019 06:46:09 76.29, -41.68 108.74 0.22 17
3 10/30/2019 22:12:50 -75.68, -95.31 69.74 10/30/2019 22:13:24 -75.67, -95.33 69.76 0.57 34
4 10/30/2019 23:03:14 76.59, 75.18 109.24 10/30/2019 23:02:30 76.59, 75.21 109.27 0.86 44
5 11/02/2019 14:29:38 -76.03, 21.62 69.30 11/02/2019 14:29:45 -76.03, 21.60 69.30 0.38 7
6 11/02/2019 15:20:03 76.88,-167.91 109.73 11/02/2019 15:18:52 76.88,-167.88 109.78 0.94 71
7 11/05/2019 05:56:07 75.12, -32.79 112.51 11/05/2019 05:57:03 75.12, -32.74 112.44 1.61 56
8 11/05/2019 06:46:25 -76.42, 138.76 68.93 11/05/2019 06:46:05 -76.41, 138.73 68.91 0.89 20
9 11/07/2019 22:12:52 75.62, 84.49 112.75 11/07/2019 22:13:21 75.62, 84.52 112.71 1.02 29




NCC Satellite Simultaneous Nadir Overpasses (SNOs) Prediction Service
